When you browse on this site, cookies collect data to enhance your experience and personalize the content and advertising you see.
Visit our Privacy Policy to learn more. By continuing to use the site, you agree to this use of cookies and data.
  • In Schweiz
  • Länderverzeichnis
  • Für 7 Tage
  • Wassertemperatur
  • Wetterkarte
  • Widgets
  • user-avatar
    Anmelden

    Stündliche Wetter Mayrhofen

    Heute, 25 Februar, Dienstag

    Zeit Temperatur Niederschläge Wind Luftdruck Luftfeuchtigkeit
    00:00 +1°C° 0 mm 2 m/S 613 mmHg 78%
    01:00 -1°C° 0 mm 2 m/S 613 mmHg 76%
    02:00 -1°C° 0 mm 2 m/S 612 mmHg 78%
    03:00 -1°C° 0 mm 2 m/S 612 mmHg 79%
    04:00 -1°C° 0 mm 2 m/S 611 mmHg 81%
    05:00 -1°C° 0 mm 2 m/S 611 mmHg 82%
    06:00 -1°C° 0 mm 2 m/S 611 mmHg 83%
    07:00 -1°C° 0 mm 2 m/S 610 mmHg 82%
    08:00 +1°C° 0 mm 2 m/S 611 mmHg 83%
    09:00 +1°C° 0 mm 2 m/S 611 mmHg 85%
    10:00 +3°C° 0 mm 1 m/S 611 mmHg 86%
    11:00 +4°C° 0 mm 1 m/S 610 mmHg 87%
    12:00 +4°C° 0 mm 1 m/S 610 mmHg 87%
    13:00 +4°C° 0 mm 1 m/S 610 mmHg 87%
    14:00 +4°C° 0.1 mm 1 m/S 609 mmHg 88%
    15:00 +3°C° 0.1 mm 1 m/S 608 mmHg 89%
    16:00 +3°C° 0.1 mm 1 m/S 608 mmHg 90%
    17:00 +2°C° 0.1 mm 1 m/S 608 mmHg 92%
    18:00 +2°C° 0.1 mm 1 m/S 607 mmHg 94%
    19:00 +1°C° 0.1 mm 1 m/S 607 mmHg 96%
    20:00 0°C° 0.3 mm 1 m/S 606 mmHg 95%
    21:00 -2°C° 0.3 mm 2 m/S 606 mmHg 95%
    22:00 -2°C° 0.3 mm 2 m/S 605 mmHg 95%
    23:00 -3°C° 0.2 mm 2 m/S 605 mmHg 95%

    Morgen, 26 Februar, Mittwoch

    Zeit Temperatur Niederschläge Wind Luftdruck Luftfeuchtigkeit
    00:00 -1°C° 0.2 mm 1 m/S 604 mmHg 95%
    01:00 -1°C° 0.2 mm 1 m/S 604 mmHg 96%
    02:00 -1°C° 1.3 mm 1 m/S 603 mmHg 96%
    03:00 -2°C° 1.3 mm 1 m/S 603 mmHg 96%
    04:00 -2°C° 1.3 mm 1 m/S 602 mmHg 97%
    05:00 -3°C° 1.4 mm 1 m/S 602 mmHg 96%
    06:00 -5°C° 1.4 mm 2 m/S 601 mmHg 95%
    07:00 -6°C° 1.4 mm 2 m/S 601 mmHg 95%
    08:00 -6°C° 0.6 mm 2 m/S 601 mmHg 88%
    09:00 -6°C° 0.6 mm 2 m/S 601 mmHg 81%
    10:00 -6°C° 0.6 mm 2 m/S 601 mmHg 74%
    11:00 -6°C° 0.1 mm 3 m/S 601 mmHg 69%
    12:00 -7°C° 0.1 mm 4 m/S 602 mmHg 63%
    13:00 -7°C° 0.1 mm 4 m/S 602 mmHg 58%
    14:00 -8°C° 0.2 mm 4 m/S 602 mmHg 63%
    15:00 -9°C° 0.2 mm 4 m/S 602 mmHg 69%
    16:00 -9°C° 0.2 mm 3 m/S 602 mmHg 74%
    17:00 -10°C° 0.1 mm 3 m/S 602 mmHg 80%
    18:00 -10°C° 0.1 mm 2 m/S 602 mmHg 85%
    19:00 -12°C° 0.1 mm 2 m/S 602 mmHg 91%
    20:00 -12°C° 0.5 mm 2 m/S 603 mmHg 92%
    21:00 -10°C° 0.5 mm 2 m/S 604 mmHg 93%
    22:00 -10°C° 0.5 mm 2 m/S 605 mmHg 93%
    23:00 -10°C° 0.4 mm 2 m/S 605 mmHg 94%

    übermorgen, 27 Februar, Donnerstag

    Zeit Temperatur Niederschläge Wind Luftdruck Luftfeuchtigkeit
    00:00 -12°C° 0.4 mm 2 m/S 606 mmHg 94%
    01:00 -12°C° 0.4 mm 2 m/S 606 mmHg 94%
    02:00 -12°C° 0.2 mm 2 m/S 606 mmHg 93%
    03:00 -11°C° 0.2 mm 1 m/S 606 mmHg 93%
    04:00 -11°C° 0.2 mm 1 m/S 606 mmHg 93%
    05:00 -12°C° 0 mm 1 m/S 606 mmHg 91%
    06:00 -14°C° 0 mm 2 m/S 606 mmHg 89%
    07:00 -15°C° 0 mm 2 m/S 606 mmHg 87%
    08:00 -13°C° 0 mm 2 m/S 607 mmHg 79%
    09:00 -10°C° 0 mm 2 m/S 608 mmHg 71%
    10:00 -8°C° 0 mm 2 m/S 608 mmHg 63%
    11:00 -7°C° 0 mm 2 m/S 608 mmHg 62%
    12:00 -7°C° 0 mm 3 m/S 607 mmHg 60%
    13:00 -7°C° 0 mm 4 m/S 607 mmHg 59%
    14:00 -8°C° 0.2 mm 4 m/S 606 mmHg 62%
    15:00 -8°C° 0.2 mm 4 m/S 604 mmHg 65%
    16:00 -10°C° 0.2 mm 5 m/S 603 mmHg 68%
    17:00 -10°C° 0.5 mm 5 m/S 603 mmHg 74%
    18:00 -11°C° 0.5 mm 5 m/S 603 mmHg 79%
    19:00 -12°C° 0.5 mm 5 m/S 602 mmHg 85%
    20:00 -12°C° 0.1 mm 5 m/S 602 mmHg 85%
    21:00 -11°C° 0.1 mm 4 m/S 602 mmHg 85%
    22:00 -11°C° 0.1 mm 4 m/S 602 mmHg 85%
    23:00 -11°C° 0.5 mm 4 m/S 602 mmHg 86%

    28 Februar, Freitag

    Zeit Temperatur Niederschläge Wind Luftdruck Luftfeuchtigkeit
    00:00 -10°C° 0.5 mm 3 m/S 603 mmHg 86%
    01:00 -10°C° 0.5 mm 3 m/S 604 mmHg 87%
    02:00 -10°C° 0.8 mm 3 m/S 604 mmHg 89%
    03:00 -10°C° 0.8 mm 3 m/S 605 mmHg 91%
    04:00 -10°C° 0.8 mm 3 m/S 606 mmHg 93%
    05:00 -10°C° 0.8 mm 3 m/S 607 mmHg 93%
    06:00 -11°C° 0.8 mm 4 m/S 608 mmHg 93%
    07:00 -12°C° 0.8 mm 4 m/S 608 mmHg 92%
    08:00 -11°C° 0.1 mm 4 m/S 610 mmHg 84%
    09:00 -9°C° 0.1 mm 3 m/S 611 mmHg 77%
    10:00 -9°C° 0.1 mm 3 m/S 612 mmHg 69%
    11:00 -8°C° 0 mm 3 m/S 612 mmHg 64%
    12:00 -7°C° 0 mm 3 m/S 613 mmHg 59%
    13:00 -6°C° 0 mm 3 m/S 613 mmHg 54%
    14:00 -5°C° 0 mm 2 m/S 613 mmHg 55%
    15:00 -5°C° 0 mm 2 m/S 613 mmHg 56%
    16:00 -3°C° 0 mm 1 m/S 613 mmHg 57%
    17:00 -6°C° 0 mm 1 m/S 612 mmHg 59%
    18:00 -8°C° 0 mm 1 m/S 612 mmHg 61%
    19:00 -10°C° 0 mm 1 m/S 611 mmHg 63%
    20:00 -10°C° 0 mm 1 m/S 611 mmHg 60%
    21:00 -10°C° 0 mm 1 m/S 611 mmHg 57%
    22:00 -12°C° 0 mm 2 m/S 612 mmHg 54%
    23:00 -10°C° 0 mm 2 m/S 612 mmHg 57%

    29 Februar, Samstag

    Zeit Temperatur Niederschläge Wind Luftdruck Luftfeuchtigkeit
    00:00 -10°C° 0 mm 2 m/S 611 mmHg 60%
    01:00 -10°C° 0 mm 2 m/S 611 mmHg 63%
    02:00 -9°C° 0 mm 2 m/S 611 mmHg 66%
    03:00 -9°C° 0 mm 2 m/S 611 mmHg 69%
    04:00 -8°C° 0 mm 2 m/S 611 mmHg 71%
    05:00 -8°C° 0 mm 2 m/S 611 mmHg 71%
    06:00 -8°C° 0 mm 2 m/S 611 mmHg 71%
    07:00 -8°C° 0 mm 2 m/S 610 mmHg 71%
    08:00 -7°C° 0 mm 2 m/S 610 mmHg 71%
    09:00 -6°C° 0 mm 3 m/S 611 mmHg 71%
    10:00 -5°C° 0 mm 3 m/S 611 mmHg 71%
    11:00 -4°C° 0 mm 3 m/S 610 mmHg 72%
    12:00 -4°C° 0 mm 4 m/S 610 mmHg 73%
    13:00 -3°C° 0 mm 4 m/S 609 mmHg 74%
    14:00 -4°C° 0 mm 4 m/S 609 mmHg 73%
    15:00 -4°C° 0 mm 4 m/S 608 mmHg 73%
    16:00 -4°C° 0 mm 4 m/S 608 mmHg 72%
    17:00 -7°C° 0 mm 4 m/S 607 mmHg 74%
    18:00 -8°C° 0 mm 4 m/S 607 mmHg 76%
    19:00 -10°C° 0 mm 4 m/S 607 mmHg 78%
    20:00 -9°C° 0 mm 3 m/S 607 mmHg 79%
    21:00 -9°C° 0 mm 3 m/S 607 mmHg 80%
    22:00 -9°C° 0 mm 3 m/S 607 mmHg 81%
    23:00 -8°C° 0 mm 2 m/S 607 mmHg 82%

    1 März, Sonntag

    Zeit Temperatur Niederschläge Wind Luftdruck Luftfeuchtigkeit
    00:00 -8°C° 0 mm 2 m/S 608 mmHg 83%
    01:00 -7°C° 0 mm 1 m/S 608 mmHg 84%
    02:00 -7°C° 0.1 mm 1 m/S 608 mmHg 86%
    03:00 -7°C° 0.1 mm 1 m/S 608 mmHg 88%
    04:00 -7°C° 0.1 mm 1 m/S 607 mmHg 90%
    05:00 -7°C° 0.2 mm 1 m/S 607 mmHg 92%
    06:00 -7°C° 0.2 mm 1 m/S 608 mmHg 94%
    07:00 -7°C° 0.2 mm 1 m/S 608 mmHg 95%
    08:00 -6°C° 0.4 mm 1 m/S 608 mmHg 94%
    09:00 -6°C° 0.4 mm 2 m/S 608 mmHg 93%
    10:00 -6°C° 0.4 mm 2 m/S 609 mmHg 91%
    11:00 -5°C° 0.3 mm 2 m/S 609 mmHg 90%
    12:00 -5°C° 0.3 mm 2 m/S 609 mmHg 88%
    13:00 -4°C° 0.3 mm 2 m/S 608 mmHg 87%
    14:00 -4°C° 0.1 mm 2 m/S 608 mmHg 85%
    15:00 -2°C° 0.1 mm 1 m/S 608 mmHg 83%
    16:00 -2°C° 0.1 mm 1 m/S 608 mmHg 80%
    17:00 -4°C° 0 mm 1 m/S 607 mmHg 83%
    18:00 -7°C° 0 mm 1 m/S 606 mmHg 86%
    19:00 -9°C° 0 mm 1 m/S 605 mmHg 89%
    20:00 -8°C° 0 mm 1 m/S 606 mmHg 87%
    21:00 -9°C° 0 mm 2 m/S 606 mmHg 84%
    22:00 -9°C° 0 mm 2 m/S 606 mmHg 82%
    23:00 -9°C° 0 mm 2 m/S 606 mmHg 82%
    Mehr zeigen